Theta_e
310 310 310 311 313 315 317 317 317 314 313 313 310 309 309 309 309 309 309 309 308 308 307 307 308 309 312 312 310 310 309 308 305 305 305 305 304 304 304 303 302 301 300
312 310 310 311 311 313 314 314 310 309 308 307 307 307 307 309 310 310 310 309 309 308 308 307 307 308 310 310 311 309 308 307 306 306 306 307 306 303 303 303 302 301 301
313 312 310 310 309 309 308 308 307 307 308 309 309 309 309 309 309 308 307 306 306 305 304 305 305 306 308 308 309 309 308 308 306 305 306 308 308 306 303 302 301 300 298
312 311 310 309 308 308 309 310 309 309 309 308 308 306 306 306 305 305 304 303 304 304 304 304 304 305 306 307 307 307 307 306 307 304 303 302 302 306 306 300 299 299 297
310 310 309 309 308 309 309 309 309 309 308 307 306 305 305 305 304 304 302 301 301 302 303 302 302 303 304 305 304 304 303 303 304 303 302 300 299 299 300 303 300 296 296
310 308 309 309 309 309 309 309 309 308 308 306 306 305 305 305 304 304 303 302 301 301 301 301 301 302 301 299 299 299 299 299 299 299 299 299 299 298 298 298 297 297 298
311 311 310 310 309 309 309 308 308 308 307 306 305 305 305 305 304 303 302 301 300 300 299 299 299 299 298 298 298 297 296 296 295 294 294 293 292 292 292 292 295 296 296
311 311 310 310 309 309 308 308 307 307 306 305 304 305 305 304 303 301 300 299 298 298 298 298 298 298 298 298 298 296 295 294 293 292 292 292 292 292 292 292 293 295 295
311 311 310 310 310 309 308 308 308 305 305 305 305 304 304 303 300 300 299 298 296 297 298 298 298 298 297 296 296 295 293 292 292 292 292 292 292 292 293 293 292 292 293
311 312 311 310 310 309 308 308 308 306 305 305 304 303 302 300 299 298 297 295 296 298 298 298 295 294 294 293 294 295 295 294 294 293 293 293 292 292 292 292 291 291 291
312 312 310 310 309 309 309 308 307 306 305 304 302 301 299 299 297 294 294 294 296 297 294 294 294 294 293 293 292 293 293 293 293 292 291 291 290 290 290 290 289 289 289
312 311 310 309 309 309 308 307 307 306 304 302 301 299 298 296 293 293 294 294 293 293 294 294 294 293 293 292 291 291 290 290 289 289 289 288 288 288 288 288 288 289 289
312 311 310 309 308 307 306 306 305 303 302 300 299 298 296 294 292 294 294 295 295 295 294 294 293 291 290 288 287 287 287 287 287 287 287 287 287 286 286 286 286 286 287
311 311 309 307 305 304 304 304 302 301 300 299 298 297 296 295 294 295 295 295 295 294 294 293 292 292 288 287 286 286 287 287 286 286 286 285 285 285 285 284 284 285 285
311 309 306 304 304 304 303 301 300 299 299 299 298 297 297 296 296 295 293 293 293 293 293 291 287 285 285 285 286 286 286 286 285 285 285 284 284 283 283 283 284 285 285
307 304 303 302 302 303 300 299 298 298 298 297 296 293 293 293 293 293 293 293 291 287 286 285 285 285 284 284 283 283 284 284 284 283 283 283 282 283 283 283 283 283 284
303 301 301 301 302 300 298 298 296 295 294 294 293 293 293 292 291 289 288 287 286 285 285 285 284 284 284 282 282 282 282 282 282 282 282 282 282 282 283 283 282 282 282
300 301 301 302 300 297 297 296 294 294 293 293 293 292 290 288 287 287 286 286 285 285 284 284 284 283 283 281 281 281 282 282 282 282 282 282 282 282 282 282 283 283 283
301 300 302 299 297 297 297 292 291 292 292 292 290 288 288 287 287 286 285 285 284 284 284 283 282 282 282 280 280 281 282 282 281 282 282 282 282 282 282 283 283 284 284
300 301 300 297 296 297 297 294 293 293 290 290 289 287 286 286 286 285 284 284 284 283 283 282 282 281 281 280 280 280 281 281 281 282 282 282 282 282 282 283 283 283 283
299 300 297 296 296 296 296 294 291 290 290 291 288 286 285 285 285 284 284 283 283 283 282 282 281 281 280 280 279 279 280 281 281 282 282 283 282 281 281 281 281 281 281
299 299 297 296 296 296 294 292 292 292 291 291 288 286 285 285 284 284 284 283 283 283 282 281 281 281 280 279 279 279 280 280 281 281 282 283 281 280 279 280 280 280 280
299 297 296 295 296 295 294 292 293 293 292 290 287 286 286 285 284 284 284 283 283 282 282 282 281 280 280 279 279 279 280 280 280 281 281 280 279 278 279 278 278 279 280
297 296 295 295 296 295 294 293 292 291 289 288 287 286 286 285 285 284 284 283 283 282 281 281 280 279 279 279 279 279 279 279 280 280 280 278 278 278 278 279 279 279 279
295 295 295 295 295 294 293 292 290 290 288 287 287 286 285 284 284 283 283 282 282 281 281 280 279 279 278 278 278 278 278 279 278 279 278 278 277 278 278 278 278 278 278
294 294 294 293 290 289 289 288 288 288 287 287 286 286 285 284 283 282 282 281 280 280 279 278 278 277 277 277 277 277 276 276 277 277 277 276 276 277 277 277 277 277 277
Wind_Speed
4 2 1 4 8 10 13 14 14 11 10 8 8 8 8 12 15 18 22 23 24 24 26 28 30 30 30 33 32 28 24 21 21 12 17 18 18 18 16 15 12 9 5
3 3 3 4 6 6 6 6 3 4 6 9 10 12 16 15 18 20 23 24 26 28 27 25 26 27 25 28 34 30 24 20 20 17 16 7 12 14 17 16 13 10 8
5 3 5 6 9 7 5 5 6 7 8 8 10 11 11 13 14 18 23 25 22 21 24 24 24 25 24 26 29 29 29 28 21 24 16 6 10 7 9 17 14 11 9
7 10 10 11 9 8 8 9 13 14 13 12 12 13 11 12 14 17 20 26 26 27 27 27 26 25 22 23 23 23 25 24 26 15 20 12 8 9 9 10 12 11 8
7 9 11 11 14 16 17 14 13 15 15 16 16 14 12 11 17 22 26 28 27 28 27 25 25 23 19 17 15 15 13 15 22 18 11 10 7 4 8 10 9 8 9
7 7 9 11 12 13 13 13 14 14 17 17 15 14 14 19 21 25 29 31 29 29 28 22 17 13 6 4 9 10 10 7 6 4 4 2 5 4 3 2 5 11 17
8 8 10 9 9 12 13 14 16 16 19 18 19 20 21 23 24 28 29 29 28 21 18 11 4 6 12 12 10 9 8 10 9 9 7 5 3 2 2 4 6 7 15
6 6 3 1 5 9 13 16 16 16 19 21 20 19 20 24 28 26 28 26 23 16 6 3 6 7 5 5 6 8 9 8 9 9 8 6 5 5 7 7 6 8 13
4 2 3 6 8 13 16 18 20 19 17 19 18 18 21 26 26 28 28 25 19 6 5 5 1 1 5 7 10 7 3 1 3 6 7 8 8 12 13 15 12 12 11
6 7 11 13 12 13 16 18 15 15 15 17 14 17 22 23 25 27 24 15 5 6 4 5 4 6 7 8 5 4 3 4 6 8 11 12 13 15 15 18 14 15 19
7 9 13 16 15 14 15 16 15 15 15 15 16 22 24 24 24 19 13 5 4 2 2 3 7 10 11 13 12 8 6 6 8 9 10 12 13 14 14 14 15 19 19
9 11 14 14 13 12 17 18 16 15 17 15 20 19 17 18 16 8 4 2 3 3 4 6 12 12 14 12 13 11 9 9 11 12 13 15 15 14 13 13 16 17 18
12 11 13 14 14 18 18 18 18 16 17 19 17 14 14 15 10 7 6 6 6 6 8 10 11 12 13 15 13 12 13 13 14 14 13 12 11 14 15 18 20 22 23
11 10 10 13 13 16 16 15 16 20 18 15 9 9 9 10 6 7 8 9 11 11 13 15 16 16 11 12 12 13 13 13 13 13 15 16 17 19 20 21 22 22 22
11 9 8 11 12 14 16 16 19 17 14 8 5 6 9 8 7 8 11 12 10 12 12 10 10 11 11 9 12 14 15 17 19 20 20 20 21 22 23 23 23 23 23
5 8 10 12 12 15 16 19 17 12 9 4 4 6 7 7 8 11 13 13 13 12 11 12 13 13 11 13 15 16 18 21 22 22 22 22 21 20 20 20 21 22 24
7 9 9 12 16 17 19 20 15 10 5 3 3 6 9 12 12 12 12 13 12 12 12 12 11 11 12 17 19 19 19 19 19 20 22 22 21 20 19 19 19 21 23
7 12 13 14 15 18 17 12 6 8 7 5 8 11 11 10 12 12 12 12 11 12 13 12 10 13 15 19 20 19 18 19 20 21 21 20 20 18 18 19 21 22 23
14 14 14 12 16 15 11 8 9 6 6 7 9 9 10 11 12 12 12 11 12 12 11 11 14 15 17 20 20 17 19 20 21 19 18 19 21 20 21 22 25 25 26
15 16 13 13 13 13 12 13 14 9 5 7 10 10 11 10 10 10 11 11 11 11 11 14 14 16 17 19 17 19 19 19 19 20 19 20 20 19 19 20 23 23 24
18 15 10 12 12 13 13 12 8 6 7 12 11 11 10 9 9 10 9 11 13 10 15 16 17 15 16 17 19 19 18 18 21 21 21 18 17 15 19 19 19 20 21
20 14 13 13 13 13 11 9 10 12 10 12 11 9 9 10 10 10 11 12 12 13 15 16 16 16 16 17 21 20 19 19 22 20 18 15 12 15 16 13 14 17 16
18 14 14 15 14 13 9 11 15 12 12 11 9 8 9 9 10 11 13 13 13 13 15 17 19 20 21 19 21 22 19 21 22 17 13 11 14 13 12 12 13 12 11
18 17 16 17 15 14 14 16 17 16 11 10 8 7 7 10 11 11 11 12 14 14 15 17 19 20 21 20 23 23 22 21 14 15 8 10 11 10 11 12 12 12 12
18 18 17 17 16 16 18 16 16 11 14 11 8 6 7 9 10 9 10 11 11 11 15 17 18 20 20 22 23 22 22 16 14 9 7 9 12 13 15 14 13 13 13
20 20 18 14 15 14 15 14 11 9 10 10 7 5 7 8 8 11 13 10 10 12 11 13 13 16 17 20 19 21 17 14 10 7 9 10 11 14 15 16 15 15 16
Wind_Direction
16 8 53 178 193 191 197 203 212 228 245 259 284 303 316 322 319 318 316 316 313 308 298 288 284 279 267 263 261 256 248 242 243 243 254 257 254 248 240 227 228 223 238
85 42 90 125 163 182 190 205 241 295 315 314 310 312 311 314 321 322 321 320 316 313 310 302 293 284 273 265 258 250 245 247 230 229 246 257 246 238 232 222 219 224 213
119 127 67 57 47 40 8 349 351 358 11 8 358 346 339 332 329 329 326 324 324 322 316 311 303 294 280 269 260 253 245 245 242 226 230 241 249 254 211 218 217 218 207
11 16 15 27 21 30 41 61 75 62 39 19 7 1 350 337 331 331 328 328 327 325 319 312 308 299 288 276 274 266 256 250 250 243 232 235 248 243 245 204 216 210 229
25 37 54 65 70 70 66 58 45 28 13 6 6 5 5 352 341 336 333 330 326 321 316 312 307 300 289 281 275 266 264 261 253 240 225 212 207 202 249 249 224 237 273
15 51 73 74 60 47 39 26 14 5 1 356 352 354 358 354 339 337 335 331 326 320 316 313 309 311 313 78 81 75 65 58 72 71 38 298 244 195 234 266 273 278 281
44 65 68 56 32 20 13 5 355 353 356 0 356 350 348 343 339 334 325 318 316 311 313 320 346 100 107 99 91 64 36 22 27 18 1 326 321 327 266 241 263 273 285
55 64 81 21 359 0 4 0 359 349 350 349 346 336 334 334 326 322 316 313 310 303 300 124 106 105 75 30 344 1 5 9 8 5 356 327 315 283 257 245 261 288 282
40 37 308 302 332 360 2 357 352 345 343 339 330 321 322 325 318 317 315 310 309 254 147 114 90 258 340 320 308 303 309 90 196 192 206 221 230 241 246 250 243 249 280
335 328 327 327 331 336 346 341 331 325 326 325 317 318 323 325 323 320 318 315 284 178 175 324 350 360 352 341 324 312 268 237 249 245 244 248 250 252 248 247 247 251 261
318 308 313 319 315 308 322 325 319 321 324 327 328 328 326 329 332 330 335 348 139 261 305 26 32 3 348 328 313 298 288 263 262 254 257 261 268 268 267 273 273 271 268
303 305 309 323 327 326 334 336 334 336 337 331 323 324 335 344 345 356 39 90 13 41 47 26 352 335 312 315 320 322 314 305 300 296 292 289 289 285 283 282 277 275 272
315 323 334 342 346 348 345 341 340 338 335 328 329 341 356 357 8 34 43 40 29 17 7 357 342 334 335 326 326 322 312 303 300 299 296 293 292 290 285 281 278 275 273
305 331 340 347 340 333 339 344 340 335 329 329 332 347 0 6 2 349 340 338 340 337 341 338 332 317 309 305 314 317 311 307 303 298 294 291 289 288 286 283 278 276 273
335 348 346 318 324 338 330 334 332 329 330 333 331 338 336 343 1 353 1 344 332 321 314 314 321 327 328 330 332 323 314 307 302 298 295 293 289 285 282 279 277 275 271
346 329 335 335 324 327 331 325 325 325 330 347 37 39 15 348 335 331 324 323 329 332 336 332 330 329 332 330 328 323 312 302 298 297 297 294 292 288 283 278 272 268 271
356 325 308 313 321 332 330 328 328 337 353 354 341 332 332 330 331 335 335 336 335 333 332 334 332 331 331 329 324 316 308 300 300 299 297 296 294 291 288 284 279 274 267
299 289 312 324 328 329 332 328 325 314 319 319 327 330 338 346 342 337 333 334 333 332 329 327 333 327 322 327 325 317 310 303 302 298 295 294 294 291 286 287 285 280 274
283 311 323 318 326 329 328 278 290 308 298 322 334 334 337 337 335 335 333 331 327 327 327 329 327 324 323 327 326 324 313 306 304 301 297 293 294 289 290 288 283 284 279
298 311 311 315 320 321 315 300 295 299 301 321 328 333 333 334 334 330 326 325 324 320 324 324 326 322 321 328 329 326 316 309 309 306 302 297 291 296 297 296 295 290 287
307 306 292 305 312 317 317 307 287 269 283 308 312 324 328 329 326 324 321 323 323 314 321 322 325 322 328 328 330 328 323 315 310 308 308 304 297 304 306 302 293 289 293
316 303 297 305 312 314 310 294 285 285 278 292 300 307 319 328 327 316 316 321 324 318 322 325 329 332 332 327 329 329 326 321 314 308 303 312 315 323 316 312 309 309 302
313 299 298 298 299 308 291 280 285 295 275 272 279 294 318 324 320 314 317 320 324 325 328 331 332 334 335 332 331 327 326 325 318 313 321 323 331 332 332 331 333 339 329
317 314 305 295 289 301 303 288 293 291 266 258 268 296 314 323 321 318 320 320 327 330 332 332 332 333 333 336 336 335 333 328 329 326 333 348 350 346 349 354 353 348 342
323 320 309 299 297 310 306 307 305 287 263 264 273 287 312 325 327 333 328 327 330 335 333 334 334 335 334 335 335 340 336 339 336 345 1 4 5 9 6 1 1 357 356
327 324 315 311 309 312 312 320 320 301 281 277 276 282 312 325 332 336 337 338 346 344 346 346 345 338 335 336 345 346 347 354 355 14 15 10 10 12 2 5 4 2 1